Location: Fort Worth, Tx
(32.7431°N, 97.3695°W)
Time: 18:30:12
(UTC-05:00)

Transit 2A - Pass Details

Date: 25 February 2024
Orbit: 591 x 959 km, 66.7° (Epoch: 03 November)

Event Time Altitude Azimuth Distance (km) Brightness Sun altitude
Exits shadow 06:54:59 10° 321° (NW) 2,236 8.0 -14.9°
Maximum altitude 06:59:54 48° 248° (WSW) 1,006 6.2 -13.9°
Drops below altitude 10° 07:05:17 10° 175° (S) 2,445 8.7 -12.8°
Sets 07:07:56 0° 170° (S) 3,436 9.6 -12.2°
